Hourly Data Report for July 06, 2017

QUALICUM BEACH AIRPORT
BRITISH COLUMBIA

49°20'14.000" N
124°23'38.000" W
58.20 m
1026562
71766
VOQ

Download Data

Hourly Data (July 2017)
Hourly Data Report for July 6, 2017
TIME
LST
Temp Definition
°C
Dew Point Definition
°C
Rel Hum Definition
%
Precip. Amount Definition
mm

Wind Dir Definition
10's deg

Wind Spd Definition
km/h
Visibility Definition
km
Stn Press Definition
kPa
Hmdx Definition


Wind Chill Definition


Weather Definition


00:00 15.6 11.5 76 0.0 0 1   101.01     LegendNANA
01:00 15.1 12.0 82 0.0 29 2   101.09     LegendNANA
02:00 14.8 11.8 82 0.0 28 3   101.13     LegendNANA
03:00 14.3 11.4 83 0.0 26 2   101.17     LegendNANA
04:00 13.6 11.0 85 0.0 26 2   101.23     LegendNANA
05:00 12.1 10.0 87 0.0 16 2   101.30     LegendNANA
06:00 14.5 11.8 84 0.0 0 1   101.33     LegendNANA
07:00 19.3 10.9 58 0.0 33 8   101.36     LegendNANA
08:00 20.1 12.9 63 0.0 34 6   101.38     LegendNANA
09:00 20.0 13.0 64 0.0 34 8   101.39     LegendNANA
10:00 21.0 13.0 60 0.0 35 7   101.36     LegendNANA
11:00 21.5 12.7 57 0.0 2 8   101.32     LegendNANA
12:00 23.3 10.1 43 0.0 1 7   101.29 25   LegendNANA
13:00 23.7 11.3 46 0.0 6 7   101.24 26   LegendNANA
14:00 24.5 11.0 43 0.0 7 7   101.20 26   LegendNANA
15:00 24.9 10.4 40 0.0 8 9   101.15 26   LegendNANA
16:00 25.7 10.6 39 0.0 7 7   101.09 27   LegendNANA
17:00 27.1 7.7 29 0.0 11 6   101.01 27   LegendNANA
18:00 26.9 8.1 30 0.0 9 5   100.96 27   LegendNANA
19:00 25.7 8.8 34 0.0 9 6   100.93 26   LegendNANA
20:00 23.0 10.7 46 0.0 10 2   100.90 25   LegendNANA
21:00 19.8 11.5 59 0.0   0   100.93     LegendNANA
22:00 19.1 11.8 63 0.0 25 1   100.91     LegendNANA
23:00 16.4 12.0 75 0.0 21 2   100.93     LegendNANA

Notes on Data Quality.

Legend

  • E = Estimated
  • M = Missing
  • NA = Not Available*
  • [empty] = Indicates an unobserved value
Date modified: